Time,TemperatureF,DewpointF,PressureIn,WindDirection,WindDirectionDegrees,WindSpeedMPH,WindSpeedGustMPH,Humidity,HourlyPrecipIn,Conditions,Clouds,dailyrainin,SolarRadiationWatts/m^2,SoftwareType,DateUTC
2013-09-03 00:23:00,60.0,60.0,-100.00,ESE,119,5.0,6.0,100,0.00,,,0.00,0.000000,,2013-09-03 05:23:00,
2013-09-03 00:34:00,60.0,60.0,-100.00,ESE,119,5.0,6.0,100,0.00,,,0.00,0.000000,,2013-09-03 05:34:00,
2013-09-03 00:43:00,60.0,60.0,-100.00,ESE,119,5.0,6.0,100,0.00,,,0.00,0.000000,,2013-09-03 05:43:00,
2013-09-03 00:52:00,60.0,60.0,-100.00,ESE,119,5.0,6.0,100,0.00,,,0.00,0.000000,,2013-09-03 05:52:00,
2013-09-03 01:22:00,60.0,60.0,-100.00,SE,144,5.0,6.0,100,0.00,,,0.00,0.000000,,2013-09-03 06:22:00,
2013-09-03 01:32:00,60.0,60.0,-100.00,SE,144,5.0,6.0,100,0.00,,,0.00,0.000000,,2013-09-03 06:32:00,
2013-09-03 01:43:00,60.0,60.0,-100.00,SE,144,5.0,6.0,100,0.00,,,0.00,0.000000,,2013-09-03 06:43:00,
2013-09-03 01:52:00,60.0,60.0,-100.00,SE,144,5.0,6.0,100,0.00,,,0.00,0.000000,,2013-09-03 06:52:00,
2013-09-03 02:22:00,57.0,57.0,-100.00,South,188,1.0,6.0,100,0.00,,,0.00,0.000000,,2013-09-03 07:22:00,
2013-09-03 02:32:00,57.0,57.0,-100.00,South,188,1.0,6.0,100,0.00,,,0.00,0.000000,,2013-09-03 07:32:00,
2013-09-03 02:42:00,57.0,57.0,-100.00,South,188,1.0,6.0,100,0.00,,,0.00,0.000000,,2013-09-03 07:42:00,
2013-09-03 02:52:00,57.0,57.0,-100.00,South,188,1.0,6.0,100,0.00,,,0.00,0.000000,,2013-09-03 07:52:00,
2013-09-03 03:22:00,56.0,56.0,-100.00,SE,136,0.0,5.0,100,0.00,,,0.00,0.000000,,2013-09-03 08:22:00,
2013-09-03 03:32:00,56.0,56.0,-100.00,SE,136,0.0,5.0,100,0.00,,,0.00,0.000000,,2013-09-03 08:32:00,
2013-09-03 03:42:00,56.0,56.0,-100.00,SE,136,0.0,5.0,100,0.00,,,0.00,0.000000,,2013-09-03 08:42:00,
2013-09-03 03:52:00,56.0,56.0,-100.00,SE,136,0.0,5.0,100,0.00,,,0.00,0.000000,,2013-09-03 08:52:00,
2013-09-03 04:22:00,58.0,58.0,-100.00,SSE,160,4.0,6.0,100,0.00,,,0.00,0.000000,,2013-09-03 09:22:00,
2013-09-03 04:33:00,58.0,58.0,-100.00,SSE,160,4.0,6.0,100,0.00,,,0.00,0.000000,,2013-09-03 09:33:00,
2013-09-03 04:43:00,58.0,58.0,-100.00,SSE,160,4.0,6.0,100,0.00,,,0.00,0.000000,,2013-09-03 09:43:00,
2013-09-03 04:53:00,58.0,58.0,-100.00,SSE,160,4.0,6.0,100,0.00,,,0.00,0.000000,,2013-09-03 09:53:00,
2013-09-03 05:23:00,55.0,55.0,-100.00,SW,233,1.0,5.0,100,0.00,,,0.00,0.000000,,2013-09-03 10:23:00,
2013-09-03 05:33:00,55.0,55.0,-100.00,SW,233,1.0,5.0,100,0.00,,,0.00,0.000000,,2013-09-03 10:33:00,
2013-09-03 05:42:00,55.0,55.0,-100.00,SW,233,1.0,5.0,100,0.00,,,0.00,0.000000,,2013-09-03 10:42:00,
2013-09-03 05:53:00,55.0,55.0,-100.00,SW,233,1.0,5.0,100,0.00,,,0.00,0.000000,,2013-09-03 10:53:00,
2013-09-03 06:23:00,54.0,54.0,-100.00,SSW,192,3.0,4.0,100,0.00,,,0.00,0.000000,,2013-09-03 11:23:00,
2013-09-03 06:33:00,54.0,54.0,-100.00,SSW,192,3.0,4.0,100,0.00,,,0.00,0.000000,,2013-09-03 11:33:00,
2013-09-03 06:43:00,54.0,54.0,-100.00,SSW,192,3.0,4.0,100,0.00,,,0.00,0.000000,,2013-09-03 11:43:00,
2013-09-03 06:52:00,54.0,54.0,-100.00,SSW,192,3.0,4.0,100,0.00,,,0.00,0.000000,,2013-09-03 11:52:00,
2013-09-03 07:22:00,56.0,56.0,-100.00,SSE,166,4.0,5.0,100,0.00,,,0.00,0.000000,,2013-09-03 12:22:00,
2013-09-03 07:32:00,56.0,56.0,-100.00,SSE,166,4.0,5.0,100,0.00,,,0.00,0.000000,,2013-09-03 12:32:00,
2013-09-03 07:42:00,56.0,56.0,-100.00,SSE,166,4.0,5.0,100,0.00,,,0.00,0.000000,,2013-09-03 12:42:00,
2013-09-03 07:52:00,56.0,56.0,-100.00,SSE,166,4.0,5.0,100,0.00,,,0.00,0.000000,,2013-09-03 12:52:00,
2013-09-03 08:22:00,59.0,59.0,-100.00,SSE,162,3.0,5.0,100,0.00,,,0.00,0.000000,,2013-09-03 13:22:00,
2013-09-03 08:32:00,59.0,59.0,-100.00,SSE,162,3.0,5.0,100,0.00,,,0.00,0.000000,,2013-09-03 13:32:00,
2013-09-03 08:42:00,59.0,59.0,-100.00,SSE,162,3.0,5.0,100,0.00,,,0.00,0.000000,,2013-09-03 13:42:00,
2013-09-03 08:52:00,59.0,59.0,-100.00,SSE,162,3.0,5.0,100,0.00,,,0.00,0.000000,,2013-09-03 13:52:00,
2013-09-03 09:21:00,66.0,66.0,-100.00,South,182,8.0,11.0,100,0.00,,,0.00,0.000000,,2013-09-03 14:21:00,
2013-09-03 09:32:00,66.0,66.0,-100.00,South,182,8.0,11.0,100,0.00,,,0.00,0.000000,,2013-09-03 14:32:00,
2013-09-03 09:42:00,66.0,66.0,-100.00,South,182,8.0,11.0,100,0.00,,,0.00,0.000000,,2013-09-03 14:42:00,
2013-09-03 09:52:00,66.0,66.0,-100.00,South,182,8.0,11.0,100,0.00,,,0.00,0.000000,,2013-09-03 14:52:00,
2013-09-03 10:22:00,72.0,66.0,-100.00,South,170,10.0,13.0,82,0.00,,,0.00,0.000000,,2013-09-03 15:22:00,
2013-09-03 10:34:00,72.0,66.0,-100.00,South,170,10.0,13.0,82,0.00,,,0.00,0.000000,,2013-09-03 15:34:00,
2013-09-03 10:43:00,72.0,66.0,-100.00,South,170,10.0,13.0,82,0.00,,,0.00,0.000000,,2013-09-03 15:43:00,
2013-09-03 10:54:00,72.0,66.0,-100.00,South,170,10.0,13.0,82,0.00,,,0.00,0.000000,,2013-09-03 15:54:00,
2013-09-03 11:24:00,77.0,65.0,-100.00,South,173,11.0,16.0,67,0.00,,,0.00,0.000000,,2013-09-03 16:24:00,
2013-09-03 11:33:00,77.0,65.0,-100.00,South,173,11.0,16.0,67,0.00,,,0.00,0.000000,,2013-09-03 16:33:00,
2013-09-03 11:43:00,77.0,65.0,-100.00,South,173,11.0,16.0,67,0.00,,,0.00,0.000000,,2013-09-03 16:43:00,
2013-09-03 11:54:00,77.0,65.0,-100.00,South,173,11.0,16.0,67,0.00,,,0.00,0.000000,,2013-09-03 16:54:00,
2013-09-03 12:23:00,80.0,63.0,-100.00,South,176,11.0,17.0,57,0.00,,,0.00,0.000000,,2013-09-03 17:23:00,
2013-09-03 12:34:00,80.0,63.0,-100.00,South,176,11.0,17.0,57,0.00,,,0.00,0.000000,,2013-09-03 17:34:00,
2013-09-03 12:43:00,80.0,63.0,-100.00,South,176,11.0,17.0,57,0.00,,,0.00,0.000000,,2013-09-03 17:43:00,
2013-09-03 12:52:00,80.0,63.0,-100.00,South,176,11.0,17.0,57,0.00,,,0.00,0.000000,,2013-09-03 17:52:00,
2013-09-03 13:22:00,83.0,63.0,-100.00,South,187,11.0,17.0,51,0.00,,,0.00,0.000000,,2013-09-03 18:22:00,
2013-09-03 13:32:00,83.0,63.0,-100.00,South,187,11.0,17.0,51,0.00,,,0.00,0.000000,,2013-09-03 18:32:00,
2013-09-03 13:43:00,83.0,63.0,-100.00,South,187,11.0,17.0,51,0.00,,,0.00,0.000000,,2013-09-03 18:43:00,
2013-09-03 13:52:00,83.0,63.0,-100.00,South,187,11.0,17.0,51,0.00,,,0.00,0.000000,,2013-09-03 18:52:00,
2013-09-03 14:22:00,85.0,61.0,-100.00,SSE,168,11.0,17.0,45,0.00,,,0.00,0.000000,,2013-09-03 19:22:00,
2013-09-03 14:32:00,85.0,61.0,-100.00,SSE,168,11.0,17.0,45,0.00,,,0.00,0.000000,,2013-09-03 19:32:00,
2013-09-03 14:42:00,85.0,61.0,-100.00,SSE,168,11.0,17.0,45,0.00,,,0.00,0.000000,,2013-09-03 19:42:00,
2013-09-03 14:52:00,85.0,61.0,-100.00,SSE,168,11.0,17.0,45,0.00,,,0.00,0.000000,,2013-09-03 19:52:00,
2013-09-03 15:22:00,86.0,60.0,-100.00,SSE,162,11.0,16.0,42,0.00,,,0.00,0.000000,,2013-09-03 20:22:00,
2013-09-03 15:32:00,86.0,60.0,-100.00,SSE,162,11.0,16.0,42,0.00,,,0.00,0.000000,,2013-09-03 20:32:00,
2013-09-03 15:42:00,86.0,60.0,-100.00,SSE,162,11.0,16.0,42,0.00,,,0.00,0.000000,,2013-09-03 20:42:00,
2013-09-03 15:52:00,86.0,60.0,-100.00,SSE,162,11.0,16.0,42,0.00,,,0.00,0.000000,,2013-09-03 20:52:00,
2013-09-03 16:22:00,87.0,61.0,-100.00,SSE,162,11.0,17.0,42,0.00,,,0.00,0.000000,,2013-09-03 21:22:00,
2013-09-03 16:34:00,87.0,61.0,-100.00,SSE,162,11.0,17.0,42,0.00,,,0.00,0.000000,,2013-09-03 21:34:00,
2013-09-03 16:44:00,87.0,61.0,-100.00,SSE,162,11.0,17.0,42,0.00,,,0.00,0.000000,,2013-09-03 21:44:00,
2013-09-03 16:54:00,87.0,61.0,-100.00,SSE,162,11.0,17.0,42,0.00,,,0.00,0.000000,,2013-09-03 21:54:00,
2013-09-03 17:23:00,86.0,61.0,-100.00,SE,145,12.0,17.0,43,0.00,,,0.00,0.000000,,2013-09-03 22:23:00,
2013-09-03 17:34:00,86.0,61.0,-100.00,SE,145,12.0,17.0,43,0.00,,,0.00,0.000000,,2013-09-03 22:34:00,
2013-09-03 17:43:00,86.0,61.0,-100.00,SE,145,12.0,17.0,43,0.00,,,0.00,0.000000,,2013-09-03 22:43:00,
2013-09-03 17:52:00,86.0,61.0,-100.00,SE,145,12.0,17.0,43,0.00,,,0.00,0.000000,,2013-09-03 22:52:00,
2013-09-03 18:22:00,85.0,60.0,-100.00,SSE,147,12.0,16.0,43,0.00,,,0.00,0.000000,,2013-09-03 23:22:00,
2013-09-03 18:34:00,85.0,60.0,-100.00,SSE,147,12.0,16.0,43,0.00,,,0.00,0.000000,,2013-09-03 23:34:00,
2013-09-03 18:42:00,85.0,60.0,-100.00,SSE,147,12.0,16.0,43,0.00,,,0.00,0.000000,,2013-09-03 23:42:00,
2013-09-03 18:53:00,85.0,60.0,-100.00,SSE,147,12.0,16.0,43,0.00,,,0.00,0.000000,,2013-09-03 23:53:00,
2013-09-03 19:22:00,82.0,58.0,-100.00,SE,140,12.0,16.0,44,0.00,,,0.00,0.000000,,2013-09-04 00:22:00,
2013-09-03 19:32:00,82.0,58.0,-100.00,SE,140,12.0,16.0,44,0.00,,,0.00,0.000000,,2013-09-04 00:32:00,
2013-09-03 19:42:00,82.0,58.0,-100.00,SE,140,12.0,16.0,44,0.00,,,0.00,0.000000,,2013-09-04 00:42:00,
2013-09-03 19:52:00,82.0,58.0,-100.00,SE,140,12.0,16.0,44,0.00,,,0.00,0.000000,,2013-09-04 00:52:00,
2013-09-03 20:22:00,76.0,61.0,-100.00,ESE,110,6.0,15.0,59,0.00,,,-99.99,0.000000,,2013-09-04 01:22:00,
2013-09-03 20:32:00,76.0,61.0,-100.00,ESE,110,6.0,15.0,59,0.00,,,-99.99,0.000000,,2013-09-04 01:32:00,
2013-09-03 20:42:00,76.0,61.0,-100.00,ESE,110,6.0,15.0,59,0.00,,,-99.99,0.000000,,2013-09-04 01:42:00,
2013-09-03 20:52:00,76.0,61.0,-100.00,ESE,110,6.0,15.0,59,0.00,,,-99.99,0.000000,,2013-09-04 01:52:00,
2013-09-03 21:22:00,72.0,64.0,-100.00,ESE,117,7.0,9.0,76,0.00,,,0.00,0.000000,,2013-09-04 02:22:00,
2013-09-03 21:32:00,72.0,64.0,-100.00,ESE,117,7.0,9.0,76,0.00,,,0.00,0.000000,,2013-09-04 02:32:00,
2013-09-03 21:43:00,72.0,64.0,-100.00,ESE,117,7.0,9.0,76,0.00,,,0.00,0.000000,,2013-09-04 02:43:00,
2013-09-03 21:52:00,72.0,64.0,-100.00,ESE,117,7.0,9.0,76,0.00,,,0.00,0.000000,,2013-09-04 02:52:00,
2013-09-03 22:22:00,70.0,61.0,-100.00,SE,134,6.0,11.0,72,0.00,,,0.00,0.000000,,2013-09-04 03:22:00,
2013-09-03 22:35:00,70.0,61.0,-100.00,SE,134,6.0,11.0,72,0.00,,,0.00,0.000000,,2013-09-04 03:35:00,
2013-09-03 22:44:00,70.0,61.0,-100.00,SE,134,6.0,11.0,72,0.00,,,0.00,0.000000,,2013-09-04 03:44:00,
2013-09-03 22:54:00,70.0,61.0,-100.00,SE,134,6.0,11.0,72,0.00,,,0.00,0.000000,,2013-09-04 03:54:00,
2013-09-03 23:24:00,66.0,60.0,-100.00,SE,137,5.0,7.0,80,0.00,,,0.00,0.000000,,2013-09-04 04:24:00,
2013-09-03 23:33:00,66.0,60.0,-100.00,SE,137,5.0,7.0,80,0.00,,,0.00,0.000000,,2013-09-04 04:33:00,
2013-09-03 23:44:00,66.0,60.0,-100.00,SE,137,5.0,7.0,80,0.00,,,0.00,0.000000,,2013-09-04 04:44:00,
2013-09-03 23:54:00,66.0,60.0,-100.00,SE,137,5.0,7.0,80,0.00,,,0.00,0.000000,,2013-09-04 04:54:00,